Malmstrom AFB, MT

4:36 AM MST on January 17, 2018 (GMT -0700)
Malmstrom AFB

Weather History for KGFA - November, 2013

Change the Weather History Date:

Wednesday, November 6, 2013

  Actual Average (KGTF) Record (KGTF)
Temperature  
Mean Temperature 34 °F -  
Max Temperature 43 °F 44 °F 72 °F (2010)
Min Temperature 24 °F 26 °F -13 °F (1971)
Degree Days  
Heating Degree Days 32    
Moisture  
Dew Point 23 °F    
Average Humidity 61    
Maximum Humidity 82    
Minimum Humidity 40    
Precipitation  
Precipitation 0.01 in - - ()
Sea Level Pressure  
Sea Level Pressure 30.28 in    
Wind  
Wind Speed 8 mph (SW)    
Max Wind Speed 18 mph    
Max Gust Speed 26 mph    
Visibility 10 miles    
Events Rain    
Averages and records for this station are not official NWS values.
T = Trace of Precipitation, MM = Missing Value Source: NWS Daily Summary

Daily Weather History Graph

Daily Weather History Graph

Search for Another Location

Airport or City:

Trip Planner

Search our weather history database for the weather conditions in past years. The results will help you decide how hot, cold, wet, or windy it might be!

Date:

Astronomy

Nov. 06, 2013 Rise Set
Actual Time 7:16 AM MST 4:59 PM MST
Civil Twilight 6:43 AM MST 5:32 PM MST
Nautical Twilight 6:07 AM MST 6:08 PM MST
Astronomical Twilight 5:31 AM MST 6:44 PM MST
Moon 10:40 AM MST (11/6) 8:02 PM MST (11/6)
Length of Visible Light 10h 48m
Length of Day
9h 42m
Waxing Crescent, 14% of the Moon is Illuminated
Nov 6
Waxing Crescent
Nov 9
First Quarter
Nov 17
Full
Nov 25
Last Quarter
Dec 2
New

Hourly Weather History & Observations

Time (MST) Temp. Windchill Dew Point Humidity Pressure Visibility Wind Dir Wind Speed Gust Speed Precip Events Conditions
12:56 AM 37.9 °F 28.9 °F 25.0 °F 60% 30.10 in 10.0 mi SSW 16.1 mph - N/A   Overcast
1:56 AM 39.9 °F 30.8 °F 26.1 °F 58% 30.12 in 10.0 mi WSW 18.4 mph 26.5 mph N/A   Overcast
2:56 AM 37.0 °F 34.5 °F 28.0 °F 70% 30.13 in 10.0 mi WNW 3.5 mph - N/A   Overcast
3:56 AM 32.0 °F 25.6 °F 27.0 °F 82% 30.14 in 10.0 mi South 6.9 mph - N/A   Overcast
4:56 AM 34.0 °F - 28.0 °F 79% 30.15 in 10.0 mi Calm Calm - N/A   Overcast
5:56 AM 37.0 °F 29.3 °F 26.1 °F 65% 30.16 in 10.0 mi WSW 11.5 mph - N/A   Partly Cloudy
6:56 AM 35.1 °F 27.9 °F 25.0 °F 67% 30.19 in 10.0 mi WSW 9.2 mph - N/A   Overcast
7:56 AM 35.1 °F 28.6 °F 23.0 °F 61% 30.23 in 10.0 mi West 8.1 mph - N/A   Overcast
8:56 AM 36.0 °F 30.3 °F 24.1 °F 62% 30.26 in 10.0 mi SW 6.9 mph - N/A   Overcast
9:56 AM 37.9 °F - 24.1 °F 57% 30.28 in 10.0 mi Calm Calm - N/A   Overcast
10:56 AM 43.0 °F 38.2 °F 24.1 °F 47% 30.27 in 10.0 mi WSW 8.1 mph - N/A   Overcast
11:56 AM 43.0 °F 39.5 °F 25.0 °F 49% 30.28 in 10.0 mi North 5.8 mph - 0.00 in Rain Light Rain
12:56 PM 41.0 °F - 26.1 °F 55% 30.29 in 10.0 mi Calm Calm - 0.01 in   Overcast
1:56 PM 43.0 °F 40.3 °F 26.1 °F 51% 30.29 in 10.0 mi North 4.6 mph - N/A   Overcast
2:56 PM 43.0 °F - 25.0 °F 49% 30.31 in 10.0 mi Calm Calm - N/A   Overcast
3:56 PM 43.0 °F 41.3 °F 28.0 °F 56% 30.33 in 10.0 mi SSE 3.5 mph - N/A   Overcast
4:56 PM 39.9 °F - 25.0 °F 55% 30.35 in 10.0 mi Calm Calm - N/A   Overcast
5:56 PM 39.9 °F 34.5 °F 17.1 °F 40% 30.37 in 10.0 mi WSW 8.1 mph - N/A   Clear
6:56 PM 28.9 °F 21.1 °F 18.0 °F 64% 30.41 in 10.0 mi South 8.1 mph - N/A   Clear
7:56 PM 34.0 °F 31.0 °F 19.0 °F 54% 30.41 in 10.0 mi SW 3.5 mph - N/A   Clear
8:56 PM 26.1 °F 20.5 °F 18.0 °F 71% 30.42 in 10.0 mi SE 4.6 mph - N/A   Clear
9:56 PM 24.1 °F 18.2 °F 18.0 °F 77% 30.43 in 10.0 mi South 4.6 mph - N/A   Clear
10:56 PM 27.0 °F 19.5 °F 19.0 °F 72% 30.41 in 10.0 mi SSW 6.9 mph - N/A   Clear
11:56 PM 27.0 °F 19.5 °F 19.0 °F 72% 30.40 in 10.0 mi SSW 6.9 mph - N/A   Clear